Overview Statistics Trail Chart Weather Telemetry Raw packets
 

This is the latest recevied weather packets stored in our database for station/object N7WSS. If no packets are shown the sender has not sent any weather packets the latest 10 day(s).

<< 71 72 73 74 75 76 77 >>
Time Temp. Humidity Pressure Rain* Wind** Luminosity Snow
1788122912 36.67° C 32% 1013.3 hPa 0 mm - - -
1788122611 37.22° C 33% 1013.5 hPa 0 mm - - -
1788122307 36.67° C 33% 1013.3 hPa 0 mm - - -
1788122003 36.11° C 33% 1013.3 hPa 0 mm - - -
1788121702 36.11° C 32% 1013.8 hPa 0 mm - - -
1788121397 36.67° C 32% 1013.6 hPa 0 mm - - -
1788121093 36.11° C 33% 1013.7 hPa 0 mm - - -
1788120787 36.11° C 32% 1013.8 hPa 0 mm - - -
1788120482 36.67° C 32% 1013.8 hPa 0 mm - - -
1788120181 36.67° C 32% 1014.1 hPa 0 mm - - -
1788119877 36.11° C 33% 1014 hPa 0 mm - - -
1788119577 36.11° C 33% 1014.3 hPa 0 mm - - -
1788119274 36.11° C 33% 1014.2 hPa 0 mm - - -
1788118969 35.56° C 33% 1014.1 hPa 0 mm - - -
1788118664 35° C 34% 1014.5 hPa 0 mm - - -
1788118363 35.56° C 34% 1014.4 hPa 0 mm - - -
1788118059 35° C 34% 1014.5 hPa 0 mm - - -
1788117754 35.56° C 34% 1014.8 hPa 0 mm - - -
1788117450 35.56° C 33% 1014.9 hPa 0 mm - - -
1788117150 34.44° C 35% 1015 hPa 0 mm - - -
1788116845 34.44° C 35% 1014.9 hPa 0 mm - - -
1788116540 35° C 35% 1015.1 hPa 0 mm - - -
1788116238 35.56° C 34% 1015 hPa 0 mm - - -
1788115934 35.56° C 34% 1015 hPa 0 mm - - -
1788115633 35° C 35% 1015 hPa 0 mm - - -

* Rain latest hour (hover to see other rain measurements)
** Current wind speed in m/s (hover to see current wind gust speed)